Accueil
METAR-TAF:

METAR-TAF

Aéroports :

Makkovik, Terre-Neuve-et-Labrador, Canada

latitude: 55-05N, longitude: 059-11W, altitude: 71 m

Observation

Le bulletin a été fait il y a 16 heures et 33 minutes, à 15:00 UTC
Vent 13 kt de sud-ouest avec des rafales jusqu'à 19 kt
Température 16°C
Humidité 59%
Pression 1006 hPa
Visibilité: 24.1 km
Nuages fragmentés à une hauteur de 2500 ft

METAR: CYFT 171500Z 23013G19KT 15SM BKN025 16/08 A2971 RMK SC7 SLP065 DENSITY ALT 700FT

Heure: 04:33 (07:33 UTC)


TAF: absent

Observations et prévisions météorologiques de plus de 4000 aéroports (messages METAR et TAF).

Les stations disponibles sont représentées par des disques jaunes et rouges sur la carte.

Passer la souris dessus pour voir le nom de la station.

Cliquer dessus pour voir les observations et prévisions météorologiques.

Pour changer de carte: cliquez sur les boutons verts avec une croix noire pour zoomer, sur le bouton vert avec un tiret pour effectuer un zoom arrière, ou sur les flèches vertes pour les cartes adjacentes.


METAR-TAF: